This demonstration page uses our WeatherBlox Daily Observations layout. Learn more.

Left ArrowRight Arrow

39.51506, -84.39828

Hourly Observations for September 5, 2020

Temp ( °F °C ) Dew Point ( °F °C ) Humidity (%) Winds ( mph kmh ) Pressure ( in mb ) Visibility ( mi km ) Precip ( " mm )
12:15 am 00:15 Clear 60 15.6 49 9.7 68 68 Calm 30.25 1024 10 16.0934 0 0
12:35 am 00:35 Clear 58 14.2 51 10.4 78 78 Calm 30.26 1025 10 16.0934 0 0
12:55 am 00:55 Clear 53 11.8 50 10.2 90 90 Calm 30.26 1025 10 16.0934 0 0
1:15 am 01:15 Clear 56 13.3 52 11.1 87 87 Calm 30.27 1025 10 16.0934 0 0
1:35 am 01:35 Clear 55 12.5 52 10.9 90 90 Calm 30.27 1025 10 16.0934 0 0
1:55 am 01:55 Clear 51 10.7 51 10.3 97 97 Calm 30.28 1025 10 16.0934 0 0
2:15 am 02:15 Clear 52 11.1 51 10.6 97 97 Calm 30.28 1025 10 16.0934 0 0
2:35 am 02:35 Clear 51 10.7 51 10.3 97 97 Calm 30.28 1025 10 16.0934 0 0
2:55 am 02:55 Clear 51 10.6 51 10.4 99 99 Calm 30.28 1025 10 16.0934 0 0
3:15 am 03:15 Clear 51 10.8 51 10.3 97 97 Calm 30.28 1025 10 16.0934 0 0
3:35 am 03:35 Clear 51 10.4 50 10 97 97 Calm 30.28 1025 10 16.0934 0 0
3:55 am 03:55 Clear 51 10.3 50 9.8 97 97 Calm 30.28 1025 10 16.0934 0 0
4:15 am 04:15 Clear 49 9.7 49 9.5 99 99 Calm 30.29 1026 10 16.0934 0 0
4:35 am 04:35 Clear 50 10 50 10 100 100 Calm 30.29 1026 10 16.0934 0 0
4:55 am 04:55 Clear 50 10 N/A N/A Calm 30.29 1026 10 16.0934 0 0
5:15 am 05:15 Clear 50 10 N/A N/A Calm 30.29 1026 10 16.0934 0 0
5:35 am 05:35 Clear 48 9 N/A N/A Calm 30.29 1026 10 16.0934 0 0
5:55 am 05:55 Clear 50 10 N/A N/A Calm 30.29 1026 10 16.0934 0 0
6:15 am 06:15 Clear with Mist and Fog 48 9 N/A N/A Calm 30.29 1026 3.5 5.63269 0 0
6:35 am 06:35 Mostly Cloudy with Mist and Fog 48 9 N/A N/A NNW 3 6 30.3 1026 1 1.60934 0 0
6:55 am 06:55 Clear 50 10 N/A N/A Calm 30.31 1026 10 16.0934 0 0
7:15 am 07:15 Hazy 48 9 N/A N/A Calm 30.31 1026 5 8.0467 0 0
7:35 am 07:35 Sunny 50 10 N/A N/A Calm 30.32 1027 10 16.0934 0 0
7:55 am 07:55 Sunny 50 10 N/A N/A Calm 30.33 1027 10 16.0934 0 0
8:15 am 08:15 Sunny 52 11 N/A N/A Calm 30.33 1027 10 16.0934 0 0
8:35 am 08:35 Sunny 55 12.5 54 12.3 99 99 Calm 30.32 1027 10 16.0934 0 0
8:55 am 08:55 Sunny 58 14.2 54 12.3 88 88 Calm 30.33 1027 10 16.0934 0 0
9:15 am 09:15 Sunny 60 15.7 54 12.4 81 81 Calm 30.32 1027 10 16.0934 0 0
9:35 am 09:35 Sunny 63 17.3 54 12.3 73 73 Calm 30.32 1027 10 16.0934 0 0
9:55 am 09:55 Sunny 66 18.8 52 11.2 62 62 WSW 6 9 30.31 1026 10 16.0934 0 0
10:15 am 10:15 Sunny 68 19.8 52 11 57 57 SSW 6 9 30.31 1027 10 16.0934 0 0
10:35 am 10:35 Sunny 69 20.6 52 10.9 54 54 SSW 7 11 30.3 1026 10 16.0934 0 0
10:55 am 10:55 Sunny 71 21.5 52 11.3 52 52 SSW 9 15 30.3 1026 10 16.0934 0 0
11:15 am 11:15 Sunny 73 23 51 10.5 45 45 SSW 8 13 30.3 1026 10 16.0934 0 0
11:35 am 11:35 Sunny 75 23.8 49 9.3 40 40 S 9 15 30.3 1026 10 16.0934 0 0
11:55 am 11:55 Sunny 76 24.6 50 9.8 39 39 SW 8 13 30.28 1026 10 16.0934 0 0
12:15 pm 12:15 Sunny 78 25.4 49 9.6 37 37 SW 12 19 30.28 1025 10 16.0934 0 0
12:35 pm 12:35 Sunny 79 25.9 49 9.5 36 36 SSW 10 17 30.27 1025 10 16.0934 0 0
12:55 pm 12:55 Sunny 79 26 49 9.7 36 36 SSW 13 20 30.27 1025 10 16.0934 0 0
1:15 pm 13:15 Sunny 80 26.5 50 10.1 36 36 SW 13 20 30.26 1025 10 16.0934 0 0
1:35 pm 13:35 Sunny 80 26.9 50 10.2 35 35 SSW 10 17 30.26 1025 10 16.0934 0 0
1:55 pm 13:55 Sunny 81 27.4 49 9.5 33 33 SW 15 24 30.25 1024 10 16.0934 0 0
2:15 pm 14:15 Sunny 83 28.1 49 9.7 32 32 SW 12 19 30.25 1024 10 16.0934 0 0
2:35 pm 14:35 Sunny 82 27.7 47 8.5 30 30 SW 14 22 30.25 1024 10 16.0934 0 0
2:55 pm 14:55 Sunny 82 27.7 47 8.5 30 30 SSW 14 22 30.24 1024 10 16.0934 0 0
3:15 pm 15:15 Sunny 83 28.1 48 8.8 30 30 SSW 15 24 30.23 1024 10 16.0934 0 0
3:35 pm 15:35 Sunny 82 27.9 50 9.8 32 32 SSW 13 20 30.22 1023 10 16.0934 0 0
3:55 pm 15:55 Sunny 83 28.5 51 10.7 33 33 WSW 13 20 30.2 1023 10 16.0934 0 0
4:15 pm 16:15 Sunny 83 28.3 49 9.7 31 31 SSW 16 26 30.21 1023 10 16.0934 0 0
4:35 pm 16:35 Sunny 83 28.2 49 9.4 31 31 WSW 15 24 30.2 1023 10 16.0934 0 0
4:55 pm 16:55 Sunny 83 28.4 49 9.5 31 31 SW 17 28 30.19 1022 10 16.0934 0 0
5:15 pm 17:15 Sunny 83 28.1 49 9.5 31 31 SSW 14 22 30.19 1022 10 16.0934 0 0
5:35 pm 17:35 Sunny 83 28.2 49 9.6 31 31 SW 13 20 30.18 1022 10 16.0934 0 0
5:55 pm 17:55 Sunny 82 27.8 50 10 33 33 SSW 14 22 30.18 1022 10 16.0934 0 0
6:15 pm 18:15 Sunny 81 27.3 50 9.9 34 34 SW 14 22 30.17 1022 10 16.0934 0 0
6:35 pm 18:35 Sunny 80 26.8 51 10.8 37 37 SW 10 17 30.17 1022 10 16.0934 0 0
6:55 pm 18:55 Sunny 79 26.3 53 11.5 40 40 WSW 8 13 30.17 1022 10 16.0934 0 0
7:15 pm 19:15 Sunny 78 25.7 51 10.3 38 38 WSW 10 17 30.18 1022 10 16.0934 0 0
7:35 pm 19:35 Sunny 77 24.8 52 11 42 42 WSW 12 19 30.18 1022 10 16.0934 0 0
7:55 pm 19:55 Sunny 75 23.8 52 11.1 45 45 WSW 8 13 30.19 1022 10 16.0934 0 0
8:15 pm 20:15 Clear 72 22.3 53 11.5 51 51 WSW 6 9 30.19 1022 10 16.0934 0 0
8:35 pm 20:35 Clear 72 22.1 53 11.8 52 52 WSW 7 11 30.19 1022 10 16.0934 0 0
8:55 pm 20:55 Clear 70 21 54 12.1 57 57 WSW 6 9 30.2 1023 10 16.0934 0 0
9:15 pm 21:15 Clear 68 20 55 12.5 62 62 SW 5 7 30.2 1023 10 16.0934 0 0
9:35 pm 21:35 Clear 69 20.3 55 13 63 63 SW 3 6 30.2 1023 10 16.0934 0 0
9:55 pm 21:55 Clear 66 18.7 56 13.2 71 71 Calm 30.21 1023 10 16.0934 0 0
10:15 pm 22:15 Clear 67 19.5 55 13 66 66 SW 3 6 30.21 1023 10 16.0934 0 0
10:35 pm 22:35 Clear 64 18 57 14.1 78 78 SW 3 6 30.22 1023 10 16.0934 0 0
10:55 pm 22:55 Clear 63 17.4 57 14 81 81 SW 3 6 30.22 1023 10 16.0934 0 0
11:15 pm 23:15 Clear 63 17.1 58 14.4 84 84 SSW 3 6 30.22 1023 10 16.0934 0 0
11:35 pm 23:35 Clear 64 18 57 13.8 77 77 Calm 30.22 1023 10 16.0934 0 0
11:55 pm 23:55 Partly Cloudy 63 17.4 57 14 81 81 Calm 30.22 1023 10 16.0934 0 0

Powered by AerisWeather